Location: Lake_James_State_Park
(35.7270°N, 81.9020°W)
Time: 14:47:48
(UTC-05:00)

Daily predictions for brighter satellites

Satellite Brightness Start Highest point End
(mag) Time Altitude Azimuth Time Altitude Azimuth Time Altitude Azimuth
Cosmos 1844 Rocket 3.2 18:04:02 10° NNW 18:09:40 69° WSW 18:15:14 10° S
OTV 4 0.8 18:12:32 10° W 18:15:29 63° SSW 18:18:25 10° ESE
CENTAUR R/B 4.2 18:10:58 10° WSW 18:16:10 28° NW 18:21:56 10° NNE
CZ-2C R/B 3.1 18:11:25 10° S 18:16:21 60° W 18:21:10 10° NNW
Meteor 1-28 Rocket 4.0 18:13:20 10° NNE 18:16:40 31° E 18:20:00 10° SSE
Cosmos 1125 Rocket 3.5 18:12:14 10° NNW 18:17:25 68° ENE 18:22:34 10° SSE
YAOGAN 1 2.8 18:13:33 10° S 18:17:52 75° WSW 18:22:13 10° NNW
Meteor 2-10 4.4 18:13:52 10° N 18:18:43 42° ENE 18:23:41 10° SSE
COSMO-SKYMED 1 2.6 18:16:59 10° NNE 18:21:16 60° E 18:25:32 10° S
SPOT 3 Rocket 4.0 18:20:01 10° S 18:25:07 67° WSW 18:30:16 10° NNW
MSX 4.0 18:19:51 10° S 18:25:34 80° WSW 18:31:19 10° NNW
Thor Agena Rocket 4.2 18:20:47 10° N 18:25:56 59° WNW 18:30:59 10° SSW
Resurs 01 Rocket 3.4 18:26:17 11° ENE 18:26:36 11° ENE 18:27:58 10° NE
Meteor 1-11 4.2 18:22:40 10° S 18:28:18 72° E 18:34:02 10° NNE
Cosmos 1980 4.3 18:24:00 10° SSW 18:29:35 61° WNW 18:35:13 10° NNE
Lacrosse 5 rocket 1.7 18:26:40 10° NNW 18:30:15 37° NE 18:34:00 10° ESE
Cosmos 1184 Rocket 4.4 18:29:42 10° SE 18:32:01 18° E 18:33:16 15° ENE
Cosmos 1538 Rocket 4.4 18:29:37 10° S 18:34:33 41° E 18:39:32 10° NNE
Cosmos 2151 3.3 18:30:48 10° SSW 18:34:59 68° W 18:39:10 10° N
Iridium 4 Rocket 4.5 18:35:00 10° SE 18:38:04 18° E 18:39:48 15° NE
Cosmos 2279 Rocket 3.9 18:35:41 10° N 18:41:54 72° E 18:48:06 10° SSE
CZ-4 R/B 4.2 18:41:24 10° SW 18:44:22 21° W 18:47:22 10° NW
ALOS 3.4 18:42:04 10° ESE 18:45:30 21° ENE 18:48:57 10° NNE
NOAA 12 4.2 18:43:11 10° SSE 18:48:14 51° ENE 18:53:19 10° N
Cosmos 2333 Rocket 3.7 18:43:52 10° SW 18:48:58 34° WNW 18:54:06 10° N
Cosmos 2219 Rocket 4.2 18:45:40 10° WSW 18:50:20 26° WNW 18:55:01 10° N
Centaur AC-119 4.1 18:49:06 10° S 18:50:32 14° SSE 18:52:10 11° ESE
Cosmos 1626 2.1 18:49:02 10° S 18:52:41 56° E 18:56:22 10° NNE
Milstar 3 4.0 18:50:30 10° W 18:56:34 34° SSW 19:02:58 10° SE
SJ-6B 3.1 18:53:24 10° SSE 18:57:16 45° ENE 19:01:13 10° N
Nadezhda 4 Rocket 4.0 18:52:23 10° S 18:58:29 59° E 19:04:39 10° NNE
Aureole 2 Rocket 4.2 18:55:22 10° SW 18:58:46 35° WNW 19:02:27 10° N
Cosmos 1703 3.3 18:57:09 10° S 19:01:01 80° W 19:04:56 10° N
Cosmos 2242 Rocket 4.3 18:58:08 10° NNE 19:02:01 29° ENE 19:05:53 10° SE
Cosmos 2278 Rocket 3.0 18:58:31 10° NNW 19:04:03 55° WSW 19:09:34 10° S
FAST Rocket 3.8 19:02:43 10° S 19:05:26 87° W 19:06:50 24° N
Cosmos 2180 Rocket 4.5 19:00:22 10° N 19:06:34 87° W 19:12:48 10° S
Cosmos 1805 Rocket 3.8 19:02:34 10° SSW 19:07:00 70° W 19:11:28 10° N
Cosmos 1455 2.3 19:03:58 10° N 19:07:40 48° E 19:11:22 10° SSE
SL-19 R/B 4.5 19:06:07 10° SE 19:11:50 50° ENE 19:17:15 10° N
Lacrosse 4 Rocket 3.5 19:11:35 10° N 19:12:09 13° NNE 19:12:09 13° NNE
Cosmos 773 Rocket 3.9 19:10:42 10° S 19:15:47 68° ESE 19:19:20 20° NNE
FREGAT/IRIS 2.4 19:14:25 10° SSE 19:17:27 86° ENE 19:20:31 10° N
Cosmos 1092 Rocket 4.0 19:12:36 10° S 19:18:49 61° E 19:25:04 10° NNE
Sich 1 3.3 19:19:58 10° SSW 19:24:23 71° W 19:28:50 10° N
USA 215 3.3 19:21:36 26° ESE 19:25:24 60° NE 19:31:51 10° NW
Cosmos 2237 Rocket 4.3 19:21:19 10° WSW 19:25:40 23° WNW 19:30:02 10° N
Cosmos 1633 Rocket 3.4 19:27:29 10° SSW 19:31:52 66° W 19:36:07 11° N
SL-16 R/B 3.1 19:26:51 10° SW 19:32:15 46° WNW 19:37:41 10° N
Cosmos 2195 Rocket 4.3 19:38:04 10° S 19:44:03 63° E 19:46:13 39° NNE
Cosmos 2297 4.5 19:41:12 10° NNW 19:46:45 53° WSW 19:52:16 10° S
OTV 4 3.5 19:49:51 10° WSW 19:50:55 12° SW 19:50:55 12° SW
Aureole 1 Rocket 4.4 19:54:36 10° SW 19:59:36 53° WNW 20:05:29 13° N
CZ-3A R/B 2.9 19:55:45 10° NW 20:00:17 84° NE 20:01:31 58° SE
Spot 2 Rocket 3.6 19:56:31 10° S 20:01:32 70° WSW 20:06:35 10° NNW
Resurs 01 Rocket 2.6 19:58:07 10° S 20:03:49 41° NW 20:06:55 10° NNW
FENGYUN 3A 4.1 20:01:38 10° S 20:06:54 60° W 20:12:13 10° NNW
Cosmos 1655 Rocket 4.2 20:01:25 10° S 20:06:21 55° SSE 20:06:21 55° SSE
Lacrosse 5 rocket 3.8 20:06:25 10° WNW 20:09:15 19° WSW 20:10:49 16° SSW
USA 229 DEB 4.2 20:02:42 10° SW 20:09:24 57° NW 20:12:14 35° N
USA 229 4.1 20:02:48 10° SW 20:09:30 57° NW 20:12:17 35° N
ALOS 3.8 20:18:28 10° SSW 20:22:41 34° W 20:26:56 10° NNW
